CW8078 Weather Reports


time (UTC)temp
F
wind
direction
speed
knots
gust
knots
rain 1hr
in
rain 24hr
in
rain mn
in
humidity
%
barometer
mb
20260905174803 99 11 0.0 0.0 0.00 0.00 0.00 50 1011.0
20260905174303 98 355 0.0 0.0 0.00 0.00 0.00 48 1011.1
20260905171803 96 21 0.0 0.0 0.00 0.00 0.00 51 1011.3
20260905171304 96 5 0.0 0.0 0.00 0.00 0.00 55 1011.4
20260905170804 96 21 0.0 0.0 0.00 0.00 0.00 52 1011.4
20260905170307 95 8 0.0 0.0 0.00 0.00 0.00 56 1011.4
20260905164804 94 331 0.0 0.0 0.00 0.00 0.00 59 1011.5
20260905164304 93 11 0.0 0.0 0.00 0.00 0.00 58 1011.5
20260905163804 93 11 0.0 0.0 0.00 0.00 0.00 62 1011.5
20260905163303 92 11 0.0 0.0 0.00 0.00 0.00 61 1011.5
20260905161803 91 313 0.0 0.0 0.00 0.00 0.00 63 1011.6
20260905161304 91 335 0.0 0.0 0.00 0.00 0.00 63 1011.7
20260905160804 90 335 0.0 0.0 0.00 0.00 0.00 62 1011.7
20260905160304 89 319 0.0 0.0 0.00 0.00 0.00 63 1011.7
20260905154803 88 196 0.0 0.0 0.00 0.00 0.00 68 1011.8
20260905154302 88 180 0.0 0.0 0.00 0.00 0.00 65 1011.7
20260905153302 87 179 0.0 0.0 0.00 0.00 0.00 67 1011.7
20260905151802 86 237 0.0 0.0 0.00 0.00 0.00 70 1011.7
20260905151302 86 236 0.0 0.0 0.00 0.00 0.00 70 1011.6
20260905150802 86 223 0.0 0.0 0.00 0.00 0.00 70 1011.6
20260905150302 86 222 0.0 0.0 0.00 0.00 0.00 70 1011.6
20260905144801 84 212 0.0 0.0 0.00 0.00 0.00 71 1011.5
20260905144302 84 212 0.0 0.0 0.00 0.00 0.00 73 1011.5
20260905143802 84 212 0.0 0.0 0.00 0.00 0.00 75 1011.4
20260905143302 83 210 0.0 0.0 0.00 0.00 0.00 75 1011.3
20260905141802 82 146 0.0 0.9 0.00 0.00 0.00 77 1011.2
20260905141302 81 157 0.0 0.0 0.00 0.00 0.00 78 1011.3
20260905140801 81 157 0.0 0.0 0.00 0.00 0.00 79 1011.4
20260905140301 80 157 0.0 0.0 0.00 0.00 0.00 80 1011.4
20260905134802 79 157 0.0 0.0 0.00 0.00 0.00 82 1011.4
20260905134302 79 157 0.0 0.0 0.00 0.00 0.00 83 1011.4
20260905133802 79 157 0.0 0.0 0.00 0.00 0.00 82 1011.4
20260905133302 78 157 0.0 0.0 0.00 0.00 0.00 83 1011.4
20260905131802 77 157 0.0 0.0 0.00 0.00 0.00 86 1011.2
20260905131302 77 157 0.0 0.0 0.00 0.00 0.00 86 1011.2
20260905130802 77 157 0.0 0.0 0.00 0.00 0.00 87 1011.3
20260905130302 76 157 0.0 0.0 0.00 0.00 0.00 87 1011.2
20260905124802 75 157 0.0 0.0 0.00 0.00 0.00 89 1011.1
20260905124301 75 157 0.0 0.0 0.00 0.00 0.00 89 1011.1
20260905123801 75 157 0.0 0.0 0.00 0.00 0.00 89 1011.1
20260905123302 75 157 0.0 0.0 0.00 0.00 0.00 89 1011.0
20260905121802 75 157 0.0 0.0 0.00 0.00 0.00 89 1010.8
20260905120802 74 157 0.0 0.0 0.00 0.00 0.00 90 1010.9
20260905120302 74 157 0.0 0.0 0.00 0.00 0.00 90 1010.7
20260905114802 74 157 0.0 0.0 0.00 0.00 0.00 90 1010.6
20260905114302 74 157 0.0 0.0 0.00 0.00 0.00 90 1010.6
20260905113801 74 157 0.0 0.0 0.00 0.00 0.00 90 1010.6
20260905113302 74 157 0.0 0.0 0.00 0.00 0.00 90 1010.5
20260905111802 74 157 0.0 0.0 0.00 0.00 0.00 90 1010.5
20260905111302 74 157 0.0 0.0 0.00 0.00 0.00 90 1010.5
20260905110802 74 157 0.0 0.0 0.00 0.00 0.00 90 1010.4
20260905110302 74 157 0.0 0.0 0.00 0.00 0.00 90 1010.3
20260905104802 74 157 0.0 0.0 0.00 0.00 0.00 90 1010.1
20260905104301 74 157 0.0 0.0 0.00 0.00 0.00 90 1010.1
20260905103802 74 157 0.0 0.0 0.00 0.00 0.00 90 1010.1
20260905103302 74 157 0.0 0.0 0.00 0.00 0.00 90 1010.1
20260905101802 74 157 0.0 0.0 0.00 0.00 0.00 89 1010.2
20260905101302 75 157 0.0 0.0 0.00 0.00 0.00 89 1010.3
20260905100802 75 157 0.0 0.0 0.00 0.00 0.00 89 1010.3
20260905094802 75 157 0.0 0.0 0.00 0.00 0.00 89 1010.4
20260905094302 75 157 0.0 0.0 0.00 0.00 0.00 89 1010.4
20260905093802 75 157 0.0 0.0 0.00 0.00 0.00 89 1010.3
20260905093302 75 157 0.0 0.0 0.00 0.00 0.00 89 1010.3
20260905091802 76 157 0.0 0.0 0.00 0.00 0.00 88 1010.2
20260905091302 76 157 0.0 0.0 0.00 0.00 0.00 88 1010.2
20260905090802 76 157 0.0 0.0 0.00 0.00 0.00 88 1010.2
20260905090302 76 157 0.0 0.0 0.00 0.00 0.00 88 1010.2
20260905084802 76 157 0.0 0.0 0.00 0.00 0.00 87 1010.3
20260905084302 76 157 0.0 0.0 0.00 0.00 0.00 87 1010.2
20260905083802 76 157 0.0 0.0 0.00 0.00 0.00 87 1010.2
20260905083302 76 157 0.0 0.0 0.00 0.00 0.00 87 1010.2
20260905081802 76 157 0.0 0.0 0.00 0.00 0.00 87 1010.1
20260905081302 76 157 0.0 0.0 0.00 0.00 0.00 86 1010.1
20260905080802 76 157 0.0 0.0 0.00 0.00 0.00 86 1010.1
20260905080302 76 157 0.0 0.0 0.00 0.00 0.00 86 1010.1
20260905074802 77 157 0.0 0.0 0.00 0.00 0.00 86 1010.0
20260905074303 77 157 0.0 0.0 0.00 0.00 0.00 86 1010.0
20260905073802 77 157 0.0 0.0 0.00 0.00 0.00 86 1009.9
20260905073302 77 157 0.0 0.0 0.00 0.00 0.00 86 1009.9
20260905071802 77 157 0.0 0.0 0.00 0.00 0.00 85 1010.0
20260905071302 77 157 0.0 0.0 0.00 0.00 0.00 85 1010.1
20260905070802 78 157 0.0 0.0 0.00 0.00 0.00 85 1010.1
20260905064802 78 157 0.0 0.0 0.00 0.00 0.00 84 1010.2
20260905064303 78 157 0.0 0.0 0.00 0.00 0.00 85 1010.2
20260905061802 79 157 0.0 0.0 0.00 0.00 0.00 83 1010.2
20260905061302 79 157 0.0 0.0 0.00 0.00 0.00 83 1010.2
20260905060802 79 157 0.0 0.0 0.00 0.00 0.00 83 1010.2
20260905060303 79 157 0.0 0.0 0.00 0.00 0.00 82 1010.2
20260905054802 79 157 0.0 0.0 0.00 0.00 0.00 82 1010.3
20260905054302 79 157 0.0 0.0 0.00 0.00 0.00 82 1010.3
20260905053802 79 157 0.0 0.0 0.00 0.00 0.00 81 1010.3
20260905053302 80 157 0.0 0.0 0.00 0.00 0.00 81 1010.3
20260905051802 80 157 0.0 0.0 0.00 0.00 0.00 81 1010.2
20260905051302 80 157 0.0 0.0 0.00 0.00 0.00 81 1010.3
20260905050802 80 157 0.0 0.0 0.00 0.00 0.00 80 1010.3
20260905050303 80 157 0.0 0.0 0.00 0.00 0.00 80 1010.3
20260905044802 81 157 0.0 0.0 0.00 0.00 0.00 79 1010.3
20260905044302 81 157 0.0 0.0 0.00 0.00 0.00 79 1010.2
20260905043802 81 157 0.0 0.0 0.00 0.00 0.00 78 1010.3
20260905043302 81 157 0.0 0.0 0.00 0.00 0.00 78 1010.2
20260905041802 82 157 0.0 0.0 0.00 0.00 0.00 77 1010.2
20260905040302 82 157 0.0 0.0 0.00 0.00 0.00 75 1010.3
20260905034802 82 157 0.0 0.0 0.00 0.00 0.00 75 1010.3
20260905034302 82 157 0.0 0.0 0.00 0.00 0.00 75 1010.3
20260905033302 82 157 0.0 0.0 0.00 0.00 0.00 76 1010.4
20260905031803 82 150 0.0 0.0 0.00 0.00 0.00 78 1010.5
20260905031302 82 149 0.0 0.0 0.00 0.00 0.00 79 1010.5
20260905030803 82 149 0.0 0.0 0.00 0.00 0.00 78 1010.5
20260905030302 82 149 0.0 0.0 0.00 0.00 0.00 77 1010.5
20260905024802 83 149 0.0 0.0 0.00 0.00 0.00 77 1010.3
20260905024302 83 149 0.0 0.0 0.00 0.00 0.00 77 1010.3
20260905023802 83 149 0.0 0.0 0.00 0.00 0.00 75 1010.3
20260905021303 84 149 0.0 0.0 0.00 0.00 0.00 72 1010.1
20260905020302 84 149 0.0 0.0 0.00 0.00 0.00 72 1010.0
20260905014303 85 149 0.0 0.0 0.00 0.00 0.00 71 1009.7
20260905013803 85 149 0.0 0.0 0.00 0.00 0.00 71 1009.6
20260905013302 85 149 0.0 0.0 0.00 0.00 0.00 71 1009.5
20260905011802 85 149 0.0 0.0 0.00 0.00 0.00 71 1009.3
20260905011302 85 149 0.0 0.0 0.00 0.00 0.00 71 1009.2
20260905010802 85 149 0.0 0.0 0.00 0.00 0.00 72 1009.3
20260905010302 85 149 0.0 0.0 0.00 0.00 0.00 72 1009.3
20260905004802 86 149 0.0 0.0 0.00 0.00 0.00 71 1009.2
20260905004302 87 149 0.0 0.0 0.00 0.00 0.00 70 1009.1
20260905003302 87 149 0.0 0.0 0.00 0.00 0.00 69 1009.1
20260905001802 89 149 0.0 0.0 0.00 0.00 0.00 68 1009.1
20260905001302 89 149 0.0 0.0 0.00 0.00 0.00 66 1009.1
20260905000802 89 149 0.0 0.0 0.00 0.00 0.00 65 1009.1
20260905000303 89 149 0.0 0.0 0.00 0.00 0.00 64 1009.2
20260904234802 90 149 0.0 0.0 0.00 0.00 0.00 62 1009.2
20260904233802 91 149 0.0 0.0 0.00 0.00 0.00 59 1009.1
20260904233302 91 149 0.0 0.0 0.00 0.00 0.00 60 1009.1
20260904231803 92 149 0.0 0.0 0.00 0.00 0.00 58 1009.2
20260904231302 93 149 0.0 0.0 0.00 0.00 0.00 57 1009.2
20260904230803 93 149 0.0 0.0 0.00 0.00 0.00 56 1009.2
20260904230302 93 149 0.0 0.0 0.00 0.00 0.00 54 1009.3
20260904224802 94 149 0.0 0.0 0.00 0.00 0.00 52 1009.3
20260904224302 95 149 0.0 0.0 0.00 0.00 0.00 51 1009.3
20260904223802 95 149 0.0 0.0 0.00 0.00 0.00 49 1009.3
20260904223303 95 167 0.0 0.0 0.00 0.00 0.00 52 1009.3
20260904221803 95 136 0.0 0.0 0.00 0.00 0.00 50 1009.2
20260904221303 96 136 0.0 0.0 0.00 0.00 0.00 49 1009.3
20260904220303 96 153 0.0 0.0 0.00 0.00 0.00 49 1009.3
20260904214802 97 132 0.0 0.0 0.00 0.00 0.00 46 1009.5
20260904214303 97 132 0.0 0.0 0.00 0.00 0.00 46 1009.5
20260904213803 97 105 0.0 0.0 0.00 0.00 0.00 46 1009.6
20260904211803 97 220 0.0 0.0 0.00 0.00 0.00 45 1009.8
20260904211302 97 220 0.0 0.0 0.00 0.00 0.00 45 1009.8
20260904210802 97 220 0.0 0.0 0.00 0.00 0.00 44 1009.9
20260904210302 98 204 0.0 0.9 0.00 0.00 0.00 43 1010.0
20260904204803 97 163 0.0 0.0 0.00 0.00 0.00 43 1010.1
20260904204303 97 134 0.0 0.0 0.00 0.00 0.00 43 1010.2
20260904203803 97 136 0.0 0.0 0.00 0.00 0.00 43 1010.2
20260904203303 97 146 0.0 0.0 0.00 0.00 0.00 42 1010.3
20260904201803 98 150 0.0 0.0 0.00 0.00 0.00 43 1010.5
20260904201302 99 86 0.0 0.0 0.00 0.00 0.00 44 1010.5
20260904200802 99 192 0.0 0.0 0.00 0.00 0.00 43 1010.6
20260904200302 99 165 0.0 0.0 0.00 0.00 0.00 43 1010.7
20260904194802 100 175 0.0 0.0 0.00 0.00 0.00 44 1011.0
20260904193802 99 119 0.0 0.0 0.00 0.00 0.00 43 1010.9
20260904191803 100 205 0.0 0.0 0.00 0.00 0.00 43 1011.1
20260904190802 99 326 0.0 0.0 0.00 0.00 0.00 45 1011.1
20260904190302 99 248 0.0 0.0 0.00 0.00 0.00 47 1011.2
20260904184803 97 0 0.0 0.0 0.00 0.00 0.00 46 1011.3
20260904184303 98 116 0.0 0.0 0.00 0.00 0.00 47 1011.4
20260904183803 98 94 0.0 0.0 0.00 0.00 0.00 50 1011.4
20260904183302 98 6 0.0 0.0 0.00 0.00 0.00 47 1011.5
20260904181803 98 179 0.0 0.0 0.00 0.00 0.00 45 1011.6
20260904180803 99 232 0.0 0.0 0.00 0.00 0.00 47 1011.7
20260904180303 98 225 0.0 0.0 0.00 0.00 0.00 48 1011.8